This is the latest recevied weather packets stored in our database for station/object KJ5JYX. If no packets are shown the sender has not sent any weather packets the latest 10 day(s).
| Time | Temp. | Humidity | Pressure | Rain* | Wind** | Luminosity | Snow |
|---|---|---|---|---|---|---|---|
| 1777995574 | 23.89° C | 83% | 1009.7 hPa | 0 mm | - | 210 W/m² | - |
| 1777995272 | 24.44° C | 82% | 1009.9 hPa | 0 mm | - | 244 W/m² | - |
| 1777994969 | 24.44° C | 83% | 1009.7 hPa | 0 mm | - | 178 W/m² | - |
| 1777994666 | 24.44° C | 82% | 1009.6 hPa | 0 mm | - | 213 W/m² | - |
| 1777994365 | 24.44° C | 82% | 1009.5 hPa | 0 mm | - | 217 W/m² | - |
| 1777994062 | 24.44° C | 81% | 1009.8 hPa | 0 mm | - | 181 W/m² | - |
| 1777993759 | 24.44° C | 82% | 1009.6 hPa | 0 mm | - | 282 W/m² | - |
| 1777993457 | 24.44° C | 82% | 1009.5 hPa | 0 mm | - | 189 W/m² | - |
| 1777993156 | 24.44° C | 83% | 1009.7 hPa | 0 mm | - | 206 W/m² | - |
| 1777992855 | 23.89° C | 83% | 1009.5 hPa | 0 mm | - | 239 W/m² | - |
| 1777992552 | 23.89° C | 84% | 1009.9 hPa | 0 mm | - | 183 W/m² | - |
| 1777992250 | 23.89° C | 84% | 1009.8 hPa | 0 mm | - | 136 W/m² | - |
| 1777991947 | 23.33° C | 85% | 1009.8 hPa | 0 mm | - | 186 W/m² | - |
| 1777991645 | 23.33° C | 85% | 1009.8 hPa | 0 mm | - | 129 W/m² | - |
| 1777991342 | 23.33° C | 85% | 1009.7 hPa | 0 mm | - | 114 W/m² | - |
| 1777991039 | 23.33° C | 86% | 1009.8 hPa | 0 mm | - | 103 W/m² | - |
| 1777990736 | 23.33° C | 86% | 1009.7 hPa | 0 mm | - | 119 W/m² | - |
| 1777990433 | 23.33° C | 85% | 1009.5 hPa | 0 mm | - | 91 W/m² | - |
| 1777989826 | 23.33° C | 87% | 1009.4 hPa | 0 mm | - | 93 W/m² | - |
| 1777989524 | 22.78° C | 87% | 1009.3 hPa | 0 mm | - | 133 W/m² | - |
| 1777989220 | 22.78° C | 88% | 1009.4 hPa | 0 mm | - | 88 W/m² | - |
| 1777988916 | 22.78° C | 88% | 1009.3 hPa | 0 mm | - | 71 W/m² | - |
| 1777988613 | 22.78° C | 88% | 1009.3 hPa | 0 mm | - | 58 W/m² | - |
| 1777988309 | 22.22° C | 88% | 1009.4 hPa | 0 mm | - | 61 W/m² | - |
| 1777988006 | 22.78° C | 89% | 1009 hPa | 0 mm | - | 29 W/m² | - |
* Rain latest hour (hover to see other rain measurements)
** Current wind speed in m/s (hover to see current wind gust speed)